This demonstration page uses our WeatherBlox Daily Observations layout. Learn more.

Left ArrowRight Arrow

Hourly Observations for January 12, 2017

Temp ( °F °C ) Dew Point ( °F °C ) Humidity (%) Winds ( mph kmh ) Pressure ( in mb ) Visibility ( mi km ) Precip ( " mm )
12:59 am 00:59 Mostly Cloudy 55 12.8 52 11.1 90 90 SSW 9 15 30.30 1026 10 16 0.00 0.00
1:59 am 01:59 Mostly Cloudy 55 12.8 53 11.7 93 93 SSW 8 13 30.30 1026 10 16 0.00 0.00
2:59 am 02:59 Mostly Cloudy 56 13.3 53 11.7 90 90 SSW 10 17 30.30 1026 10 16 0.00 0.00
3:59 am 03:59 Mostly Cloudy 55 12.8 53 11.7 93 93 S 12 19 30.30 1026 10 16 0.00 0.00
4:59 am 04:59 Mostly Cloudy 56 13.3 54 12.2 93 93 SSW 7 11 30.32 1027 10 16 0.00 0.00
5:59 am 05:59 Mostly Cloudy 56 13.3 54 12.2 93 93 S 9 15 30.31 1027 10 16 0.00 0.00
6:59 am 06:59 Partly Cloudy 55 12.8 53 11.7 93 93 SSW 8 13 30.32 1027 10 16 0.00 0.00
7:59 am 07:59 Partly Cloudy 58 14.4 54 12.2 87 87 SSW 13 20 30.32 1027 10 16 0.00 0.00
8:59 am 08:59 Partly Cloudy 62 16.7 54 12.2 75 75 SW 15 24 30.32 1027 10 16 0.00 0.00
9:59 am 09:59 Partly Cloudy 65 18.3 54 12.2 68 68 SW 14 22 30.32 1027 10 16 0.00 0.00
10:59 am 10:59 Partly Cloudy 68 20 53 11.7 59 59 SW 17 28 30.31 1026 10 16 0.00 0.00
11:59 am 11:59 Partly Cloudy 69 20.6 53 11.7 57 57 SW 17 28 30.28 1025 10 16 0.00 0.00
12:59 pm 12:59 Partly Cloudy 71 21.7 52 11.1 51 51 SW 17 28 30.25 1024 10 16 0.00 0.00
1:59 pm 13:59 Mostly Cloudy 71 21.7 52 11.1 51 51 SW 17 28 30.24 1024 10 16 0.00 0.00
2:59 pm 14:59 Mostly Cloudy 71 21.7 51 10.6 49 49 SW 14 22 30.24 1024 10 16 0.00 0.00
3:59 pm 15:59 Mostly Cloudy 69 20.6 51 10.6 53 53 SW 13 20 30.24 1024 10 16 0.00 0.00
4:59 pm 16:59 Mostly Cloudy 67 19.4 52 11.1 59 59 SW 12 19 30.24 1024 10 16 0.00 0.00
5:59 pm 17:59 Partly Cloudy 65 18.3 52 11.1 63 63 SSW 8 13 30.26 1025 10 16 0.00 0.00
6:59 pm 18:59 Partly Cloudy 65 18.3 52 11.1 63 63 SSW 9 15 30.27 1025 10 16 0.00 0.00
7:59 pm 19:59 Partly Cloudy 64 17.8 52 11.1 65 65 SSW 9 15 30.27 1025 10 16 0.00 0.00
8:59 pm 20:59 Clear 64 17.8 52 11.1 65 65 SSW 13 20 30.28 1025 10 16 0.00 0.00
9:59 pm 21:59 Partly Cloudy 63 17.2 51 10.6 65 65 SW 10 17 30.29 1026 10 16 0.00 0.00
10:59 pm 22:59 Partly Cloudy 63 17.2 51 10.6 65 65 SSW 10 17 30.29 1026 10 16 0.00 0.00
11:59 pm 23:59 Clear 61 16.1 51 10.6 70 70 SSW 10 17 30.29 1026 10 16 0.00 0.00

Powered by AerisWeather